Wind_Speed
14 19 22 20 18 18 17 17 15 14 12 12 11 10 9 8 7 7 6 5 3 2 1 1 2 2 3 6 7 7 7 7 6 7 8 9 10 10 11 11 11 11 11 10 11 10 9 10 10 10 10 10 10 10 10 11 11 12 12 11 10 10
14 19 18 17 17 17 17 16 15 13 13 12 11 10 9 9 8 7 7 5 5 3 2 2 2 2 2 3 4 4 5 6 6 7 8 9 9 9 10 11 11 11 10 9 9 9 8 9 10 10 10 11 11 11 11 11 11 11 12 11 11 11
14 16 16 17 18 17 17 15 14 13 13 12 11 10 10 9 8 7 7 6 5 5 5 4 3 3 4 4 4 4 5 6 6 7 8 8 8 8 9 9 9 9 9 9 9 9 8 9 10 10 10 11 11 11 11 11 11 11 11 11 11 11
14 15 15 16 15 14 13 12 12 12 12 12 11 11 10 9 9 8 7 6 6 6 6 5 5 5 5 6 6 6 6 6 7 8 8 9 9 9 9 10 10 9 9 9 9 9 9 9 10 10 10 11 11 11 11 11 11 11 11 11 11 11
11 11 11 10 11 11 11 11 11 11 11 12 11 11 10 9 8 7 7 6 6 6 6 6 5 5 6 6 7 8 8 8 8 8 9 9 9 9 10 11 11 11 10 10 10 11 10 10 11 11 11 11 11 11 11 11 11 11 11 11 11 11
9 9 9 9 10 11 11 11 11 11 11 11 11 10 10 9 8 7 7 7 7 7 7 7 7 6 6 6 7 8 10 10 9 9 9 9 8 8 9 10 10 11 12 12 12 12 12 11 12 12 12 11 11 11 11 11 11 11 11 12 11 11
9 10 11 11 11 11 11 11 11 11 11 11 11 10 10 9 8 8 7 7 7 7 7 8 8 8 7 7 6 7 8 9 10 10 10 9 9 9 10 10 10 11 12 13 13 13 13 12 12 13 13 12 12 12 12 12 12 13 13 12 12 12
8 9 10 10 11 11 11 10 10 10 10 11 10 10 10 9 9 8 7 6 6 6 6 7 8 8 8 8 7 7 7 8 9 10 10 10 10 10 11 12 12 12 12 13 14 15 15 14 14 13 13 13 13 13 13 13 13 14 14 14 14 13
7 7 8 9 10 11 12 11 10 10 11 11 11 11 10 10 9 8 7 5 5 5 6 7 8 9 10 10 10 9 9 9 10 11 11 11 11 11 11 12 13 13 13 14 15 17 17 17 16 15 15 15 14 14 13 14 14 15 16 16 15 15
7 8 9 10 11 13 14 13 12 12 12 12 12 12 11 10 10 9 7 5 5 7 8 9 10 11 11 11 11 11 11 11 12 12 13 13 13 13 13 12 13 14 15 16 17 18 18 18 18 17 16 16 16 15 15 15 16 17 17 17 16 16
8 8 9 10 11 12 14 14 14 14 14 13 13 13 12 12 12 11 9 7 7 9 11 12 13 14 14 14 13 13 13 13 14 14 15 15 15 15 15 15 15 16 16 16 17 17 18 19 19 19 18 18 18 17 17 17 18 19 19 19 18 17
9 9 9 9 9 10 12 13 13 13 13 13 12 12 13 14 14 13 12 11 11 11 12 14 15 16 17 17 18 17 17 17 17 17 17 17 17 17 17 17 17 17 18 18 18 18 19 19 20 21 21 21 21 20 20 20 21 21 21 21 21 20
12 11 11 11 12 12 14 14 14 13 14 14 13 13 14 15 16 16 17 17 15 14 14 15 16 18 19 20 20 21 21 20 20 19 19 19 19 19 20 20 19 19 19 19 19 19 20 20 20 21 22 23 24 23 23 23 24 24 24 23 23 22
15 14 14 14 15 16 18 19 19 19 18 19 19 18 18 18 19 20 21 20 18 17 16 16 17 18 19 21 21 22 22 21 21 21 21 21 22 22 22 22 22 21 21 21 21 21 21 22 22 22 22 23 24 25 25 25 25 25 26 25 24 23
15 16 16 17 17 19 20 22 23 23 23 23 22 21 21 20 21 22 23 22 20 19 18 18 18 19 20 21 22 22 22 22 22 23 23 23 23 24 24 25 25 25 25 24 24 24 24 24 24 24 24 24 25 25 25 26 26 26 26 25 25 24
17 17 18 19 20 21 22 23 24 24 25 25 24 23 22 22 22 23 23 23 22 21 20 20 20 20 21 22 22 23 23 23 24 25 25 25 25 26 26 26 27 27 27 27 27 27 26 26 26 26 26 26 26 26 26 27 28 28 26 25 25 24
18 19 20 20 21 22 23 24 24 24 25 25 25 24 23 23 23 23 23 23 23 22 22 22 22 22 23 23 24 24 25 25 26 27 27 27 27 28 28 28 28 28 29 29 29 29 29 28 27 28 28 28 28 28 27 27 28 29 28 26 26 25
17 18 19 20 21 22 23 23 24 25 25 25 25 24 24 24 24 24 24 24 24 24 24 24 25 25 25 26 26 26 27 28 28 29 29 29 29 30 30 30 30 30 30 30 30 31 31 30 29 29 30 30 30 29 29 29 29 30 29 29 28 27
15 16 17 18 20 21 22 23 24 24 25 25 25 25 25 25 25 25 26 26 26 26 26 27 27 28 28 29 29 29 30 30 31 31 31 32 32 32 33 33 33 33 32 32 32 33 33 32 31 31 31 32 32 31 30 30 30 30 30 30 29 29
16 17 18 19 20 21 22 23 24 25 25 26 26 26 27 27 27 27 27 28 28 28 29 29 30 30 31 31 32 32 32 33 33 33 33 34 34 35 35 35 35 36 36 35 35 35 35 35 34 33 33 33 33 32 31 31 30 30 31 31 31 31
17 18 19 20 21 22 23 24 25 26 27 27 28 28 28 29 29 29 29 29 30 30 30 31 32 32 33 33 34 34 34 34 34 35 35 35 36 36 37 37 37 38 38 38 38 38 37 37 36 36 35 34 34 34 33 32 32 32 32 33 34 33
17 19 20 21 22 23 24 25 26 26 27 28 29 29 30 30 31 31 31 31 31 31 31 32 32 33 33 34 34 34 34 34 35 35 35 35 36 37 37 38 39 38 39 39 40 41 40 39 39 38 38 36 35 36 35 34 33 33 34 35 35 35
16 17 19 20 21 23 24 26 27 27 28 29 30 31 31 32 32 32 32 32 32 32 32 32 33 33 33 34 34 34 34 34 35 35 35 35 35 36 36 37 37 38 38 38 38 40 41 42 42 41 40 38 38 38 37 36 35 35 35 35 36 37
16 17 18 19 20 22 23 24 26 27 28 29 30 31 32 33 33 33 33 33 32 32 32 32 33 33 33 34 34 34 34 35 35 36 35 35 35 35 36 36 36 36 37 37 37 38 40 42 43 43 42 41 41 40 38 38 38 37 36 36 37 37
17 18 18 20 21 23 23 24 25 26 27 28 29 30 31 32 33 33 33 33 32 32 32 32 32 32 32 33 33 34 34 35 36 36 35 35 35 35 35 35 34 34 34 35 36 37 39 40 41 41 42 42 42 41 39 40 40 39 39 38 37 37
18 18 19 21 23 24 25 26 27 27 28 29 29 30 30 31 31 32 32 32 31 31 31 32 32 32 32 32 33 34 34 35 36 36 36 35 34 33 32 30 30 30 31 31 32 34 37 39 39 38 40 41 42 42 41 41 41 39 40 39 38 37
21 22 23 24 25 26 27 28 28 29 29 30 31 31 31 30 30 31 31 30 31 31 31 32 32 32 33 33 33 33 34 34 34 35 35 33 31 28 27 26 26 26 28 29 30 31 34 37 37 37 38 39 40 41 41 42 41 41 40 40 40 39
26 26 27 27 27 28 28 29 29 29 30 30 31 31 31 30 30 30 30 30 30 31 31 31 32 32 32 32 31 31 31 31 31 31 32 30 28 26 24 24 25 26 28 29 31 31 33 35 35 36 36 36 37 38 40 41 41 42 41 40 40 41
28 29 29 28 27 27 28 28 28 28 29 29 29 29 29 29 29 29 29 29 29 30 30 30 30 30 30 30 30 31 31 31 30 30 29 28 26 26 25 25 26 27 29 31 32 33 34 35 36 35 35 36 35 35 37 39 40 41 42 41 40 40
28 29 28 26 25 26 27 26 25 25 26 26 27 27 27 28 28 28 28 28 28 28 29 29 29 29 30 30 31 31 31 31 31 29 29 28 27 26 26 27 28 29 30 32 33 34 35 36 37 36 36 36 34 33 33 35 36 38 39 40 39 39
21 21 22 22 22 24 25 25 24 24 24 24 24 25 26 26 27 27 28 28 28 29 29 29 30 30 30 30 30 30 31 31 30 29 29 28 28 28 28 28 29 30 31 32 33 35 35 36 36 37 37 36 35 33 32 32 33 34 35 36 37 38
14 15 16 17 19 22 24 24 24 24 24 24 25 25 26 26 27 27 28 29 30 30 30 31 31 31 31 31 31 30 30 29 29 29 29 29 29 29 29 30 30 31 32 32 33 33 34 34 34 34 36 36 36 35 34 33 32 32 33 32 33 34
12 13 14 14 17 20 22 24 24 24 25 26 27 27 27 28 28 29 30 31 31 32 32 32 33 33 33 32 32 31 31 30 29 29 30 30 30 30 30 31 31 32 32 31 32 32 32 32 31 31 33 35 36 35 35 35 34 33 33 32 30 31
12 12 12 12 14 17 19 21 22 23 24 25 26 27 28 29 30 31 32 32 33 33 34 34 34 34 34 34 33 33 32 31 31 30 30 30 31 31 31 31 32 32 31 31 31 31 30 29 29 29 30 33 34 36 36 37 36 35 35 33 32 31
12 11 11 12 13 14 16 17 19 20 21 23 24 25 27 28 29 30 31 32 33 34 35 35 35 35 35 35 35 34 33 33 32 32 32 31 31 31 31 32 32 32 31 30 30 30 29 29 28 28 29 31 33 35 37 38 38 37 36 35 34 32
13 13 12 12 13 14 14 15 16 18 19 21 22 23 25 26 27 28 29 30 32 33 34 35 35 36 36 36 35 35 34 34 33 33 33 32 31 31 32 32 32 31 31 30 29 29 28 28 28 28 29 31 33 35 36 37 37 37 37 36 36 33
13 13 12 12 13 13 14 15 16 17 18 20 21 22 23 24 25 26 27 28 29 30 32 33 34 35 35 35 35 34 33 33 33 32 31 31 31 31 31 31 31 30 30 29 29 28 28 28 28 28 28 30 31 33 35 35 35 35 35 34 34 33
Wind_Direction
201 198 188 184 188 191 190 188 188 190 191 195 199 201 204 206 214 220 230 246 253 267 312 342 325 288 240 234 238 242 236 228 232 244 245 245 245 245 244 243 246 248 246 247 252 255 259 262 262 262 262 265 270 276 282 286 289 290 291 293 296 301
194 186 184 190 194 193 190 190 191 193 195 199 202 205 208 209 215 221 224 232 241 245 248 262 287 310 293 260 249 248 248 248 248 250 254 256 254 252 250 247 246 249 250 250 255 256 259 263 264 266 266 267 268 270 274 277 282 285 289 291 294 296
183 185 193 196 194 192 191 193 194 197 201 203 206 209 211 209 211 216 217 221 231 235 236 243 254 263 267 266 259 246 241 241 241 247 255 260 263 264 263 259 254 254 254 254 258 261 262 264 266 267 267 268 268 268 269 273 277 281 285 288 289 289
185 191 192 189 189 192 195 198 200 203 206 207 209 212 211 208 207 209 210 214 222 229 231 231 237 246 254 260 262 256 252 249 247 249 252 258 262 263 266 265 262 259 259 258 259 263 264 264 267 266 264 265 265 266 269 272 277 280 283 284 284 285
173 178 178 182 188 193 199 203 206 210 212 213 214 214 215 214 211 210 212 215 220 226 230 229 224 230 239 249 255 255 252 252 255 255 253 253 252 255 260 263 265 263 263 266 265 265 264 262 262 262 262 262 264 266 268 272 277 280 281 280 280 281
163 172 177 187 195 198 204 207 210 215 219 222 222 221 219 217 214 210 210 212 217 222 227 231 227 225 226 235 250 253 250 248 254 261 262 259 252 248 251 258 264 264 262 264 267 268 267 265 263 263 264 264 266 268 270 272 276 279 279 278 275 272
176 183 183 190 197 202 207 209 212 216 222 227 228 227 223 215 207 199 200 205 211 217 222 226 229 230 229 234 245 250 248 244 247 256 261 261 257 254 255 258 260 260 259 259 263 267 268 268 268 270 270 269 269 270 271 272 273 274 274 274 271 267
178 184 181 184 191 198 200 202 208 213 218 222 223 222 213 199 187 181 181 186 197 211 222 225 227 228 230 236 243 248 246 242 243 248 251 253 256 259 261 262 259 255 253 253 259 265 268 268 268 270 270 270 270 270 271 272 272 272 270 269 268 266
180 190 191 191 195 197 196 201 213 221 222 215 208 201 194 186 180 176 173 180 200 214 223 228 228 226 227 231 236 241 243 241 242 244 247 249 252 255 258 260 260 256 253 253 258 264 268 268 265 264 265 267 267 267 269 269 270 269 268 266 265 266
190 196 200 203 204 204 205 212 219 221 219 208 197 193 197 200 195 185 181 194 225 235 233 231 230 228 226 227 230 235 240 243 245 247 249 250 251 252 252 254 257 259 259 258 259 261 264 264 263 262 261 262 263 265 266 266 266 265 266 265 264 265
198 196 197 198 202 207 211 216 217 217 215 209 204 207 214 215 206 198 200 220 247 251 241 234 231 229 228 229 233 238 244 249 251 255 257 257 257 256 254 253 255 258 260 260 259 259 259 260 261 262 261 259 260 262 264 265 265 265 265 265 264 264
210 210 210 207 205 208 208 209 211 213 211 209 208 212 219 220 217 218 230 249 264 262 250 240 234 230 230 232 236 242 246 250 252 255 258 260 261 262 261 258 256 257 258 259 259 258 258 258 260 263 264 263 262 261 262 263 264 265 265 265 265 264
225 225 226 225 222 218 215 213 215 214 212 215 221 229 235 235 236 240 248 257 263 260 254 246 240 237 235 236 239 242 245 247 249 251 255 258 260 261 263 262 260 260 260 259 259 259 259 259 259 261 263 264 264 263 261 261 262 263 264 264 264 264
233 233 232 232 232 230 227 227 228 229 228 232 238 245 248 247 248 250 252 254 254 252 251 249 246 243 241 241 242 244 247 249 250 251 252 255 256 258 259 260 261 262 263 262 261 260 260 260 260 259 260 261 263 264 263 261 260 261 262 262 262 262
234 235 234 233 235 236 235 234 235 236 238 240 242 245 247 248 249 251 252 251 249 247 247 248 249 249 247 246 245 247 249 252 254 254 253 253 254 255 256 257 259 261 263 264 263 262 260 260 261 261 261 261 262 262 262 261 260 258 259 261 262 262
231 233 234 234 234 236 237 238 237 238 239 240 241 241 242 243 245 247 248 247 246 244 244 245 247 250 251 251 251 251 251 252 254 255 255 253 253 253 254 254 256 258 261 263 263 264 263 262 262 262 263 263 263 262 261 261 262 261 259 259 260 261
230 231 233 235 236 237 238 240 241 240 240 239 239 238 238 238 239 241 244 245 245 244 244 246 247 249 251 253 255 255 254 254 253 253 253 253 253 253 253 253 254 255 257 259 261 262 263 263 262 262 262 262 262 262 261 261 262 264 263 261 261 260
233 233 234 235 237 238 239 240 242 242 242 241 239 238 237 236 236 238 240 243 245 246 246 247 248 250 251 253 254 256 257 256 255 254 254 254 254 254 254 255 254 254 254 256 258 258 259 260 260 260 260 261 260 259 260 260 260 262 264 264 263 262
235 236 236 236 237 238 238 239 240 241 242 242 242 241 240 240 240 240 241 243 245 246 248 248 249 249 251 252 253 254 256 256 256 256 255 255 255 255 256 256 257 257 255 254 254 256 256 257 258 257 258 260 260 260 259 260 260 261 263 264 264 264
237 238 239 239 239 240 240 241 242 243 243 244 245 246 246 246 246 245 245 245 245 246 247 248 249 249 249 250 252 253 254 255 257 258 257 257 256 256 257 257 258 258 258 256 253 253 254 255 255 255 256 257 259 259 259 259 259 260 261 263 263 263
242 243 243 243 243 244 244 245 246 247 248 248 248 249 249 249 249 249 249 248 248 248 248 248 249 250 250 250 251 253 254 255 256 258 259 258 258 257 257 257 258 257 258 259 258 255 254 254 254 254 255 255 257 258 258 257 257 257 259 261 262 263
251 251 251 251 251 250 250 251 251 252 252 253 253 253 253 252 252 252 252 251 251 251 250 250 250 251 252 252 252 253 255 256 257 258 259 259 260 260 259 259 260 260 259 259 261 261 259 257 255 254 254 254 256 257 258 257 256 256 256 257 259 261
260 260 260 260 259 258 257 256 256 256 256 256 256 256 256 256 256 256 255 255 254 253 252 252 251 251 252 253 254 254 255 256 258 258 259 260 262 263 263 263 262 263 262 262 262 263 262 261 259 257 255 254 255 256 257 258 256 255 255 256 257 258
267 266 266 265 264 263 262 260 259 259 259 258 258 258 258 258 258 258 257 257 256 255 254 254 253 253 254 255 256 257 258 258 259 260 262 263 265 265 265 265 264 264 264 264 264 264 263 262 262 261 259 258 256 256 258 258 258 256 255 255 256 257
269 269 269 268 266 264 264 263 262 261 260 260 259 260 260 260 260 259 259 258 258 257 256 256 256 256 256 256 258 259 260 261 262 264 266 267 268 268 269 269 268 267 266 266 266 266 266 265 264 263 263 261 260 259 258 258 259 258 257 256 256 257
270 271 272 272 271 269 267 264 264 263 263 262 262 261 262 262 262 261 260 259 259 259 259 259 259 259 259 259 260 261 261 262 263 265 267 269 270 271 272 272 273 273 273 271 269 269 269 269 269 268 266 265 263 262 261 259 259 258 258 258 258 258
275 275 275 275 276 275 272 269 268 267 266 265 264 264 263 263 262 262 261 260 259 259 260 261 261 261 261 261 262 262 263 263 263 263 265 268 269 269 270 271 274 276 277 277 275 274 273 273 275 274 272 270 268 266 264 262 261 259 258 258 260 259
278 278 277 276 276 276 274 272 270 270 269 268 265 264 263 262 260 259 259 259 259 259 260 260 260 261 261 261 262 263 264 264 264 263 263 265 265 266 268 272 275 277 279 280 279 278 276 276 276 276 276 276 275 272 270 267 264 262 259 258 260 261
277 277 276 274 273 273 273 271 270 269 269 268 265 262 261 260 258 256 256 257 258 259 259 259 260 260 260 261 262 263 264 265 266 265 264 263 262 265 270 274 279 282 283 283 281 279 277 276 276 276 276 277 278 277 276 274 271 268 264 261 260 262
276 275 273 270 269 271 272 271 269 268 269 268 265 262 260 259 258 257 257 257 258 259 260 260 260 259 260 262 264 265 266 266 266 264 263 262 262 266 271 276 280 284 284 283 282 281 278 277 276 275 275 274 276 278 279 279 278 275 272 267 263 262
278 275 271 268 267 270 272 272 271 270 270 269 268 265 263 261 260 261 261 262 262 262 262 261 261 261 261 263 265 267 267 266 264 262 261 260 262 266 271 276 281 283 284 283 282 281 281 280 278 275 274 273 273 275 277 279 280 279 277 273 268 265
285 282 278 273 270 270 272 273 272 270 270 271 270 268 267 266 265 264 265 265 266 265 265 264 264 263 263 263 265 266 267 266 263 261 260 259 262 266 271 277 281 282 283 282 282 283 283 283 280 276 274 273 272 272 274 277 279 280 280 278 273 268
291 288 285 280 274 271 271 272 272 272 272 272 272 271 270 269 268 266 266 265 265 265 265 265 264 264 264 264 264 265 265 265 264 262 260 260 263 266 271 276 279 281 282 282 283 285 286 286 283 278 274 273 272 271 272 274 276 278 280 281 277 269
294 291 288 282 275 272 271 272 273 274 274 274 274 274 273 272 271 269 267 265 264 264 263 264 264 264 264 264 263 263 263 263 263 262 261 262 263 267 271 275 278 279 280 281 283 285 287 288 287 282 278 275 273 272 272 274 275 277 278 280 279 272
297 295 292 287 281 277 275 275 276 277 277 277 277 276 276 275 274 272 270 267 266 264 263 263 263 263 264 264 264 263 263 262 262 262 262 262 264 267 270 273 276 278 279 280 281 283 285 287 287 285 282 278 275 274 274 274 276 277 277 278 278 275
303 300 296 292 288 284 283 282 282 282 281 281 280 279 278 277 276 274 273 271 269 266 265 264 263 263 263 264 265 265 265 264 263 263 263 263 264 265 268 271 275 277 278 279 280 281 283 284 286 285 283 280 278 276 276 276 277 277 276 275 274 273
302 301 300 298 295 293 291 289 287 284 283 282 281 280 280 279 278 277 275 273 271 269 267 265 264 263 263 264 265 266 266 266 266 266 264 263 262 263 266 269 272 275 276 278 279 280 281 283 285 286 286 285 283 282 280 280 279 277 275 273 271 269
Height
5804 5806 5807 5809 5812 5813 5815 5816 5818 5819 5820 5821 5822 5823 5823 5823 5823 5823 5824 5824 5824 5824 5824 5825 5826 5826 5827 5828 5828 5829 5829 5829 5829 5830 5831 5832 5833 5833 5834 5835 5836 5836 5836 5836 5836 5836 5837 5837 5837 5837 5837 5837 5837 5837 5837 5838 5838 5838 5838 5838 5838 5838
5804 5806 5808 5810 5812 5813 5815 5816 5817 5818 5819 5820 5821 5822 5822 5823 5823 5823 5824 5824 5824 5824 5824 5824 5825 5826 5826 5827 5827 5828 5829 5829 5830 5830 5831 5831 5832 5832 5833 5834 5834 5835 5835 5835 5835 5836 5836 5836 5836 5836 5836 5836 5836 5836 5836 5837 5837 5837 5837 5837 5837 5837
5806 5807 5808 5810 5811 5813 5814 5815 5817 5818 5819 5819 5820 5821 5821 5822 5822 5823 5823 5823 5823 5823 5823 5823 5824 5825 5825 5826 5827 5827 5828 5828 5829 5829 5830 5830 5831 5831 5832 5833 5834 5834 5834 5834 5834 5835 5835 5835 5835 5836 5836 5836 5835 5835 5835 5835 5835 5835 5835 5835 5835 5836
5807 5808 5809 5810 5811 5813 5814 5815 5816 5817 5818 5819 5819 5820 5820 5821 5821 5822 5822 5822 5823 5823 5823 5823 5823 5823 5824 5825 5826 5827 5827 5828 5828 5828 5829 5829 5830 5830 5831 5832 5833 5833 5834 5834 5834 5834 5834 5835 5834 5834 5835 5835 5835 5834 5834 5834 5834 5834 5834 5834 5834 5834
5808 5809 5810 5811 5812 5813 5814 5815 5816 5817 5817 5818 5818 5819 5820 5820 5821 5821 5821 5822 5822 5822 5822 5822 5822 5822 5823 5823 5824 5825 5826 5827 5827 5828 5828 5828 5829 5829 5830 5831 5832 5832 5833 5833 5833 5833 5833 5833 5833 5833 5833 5833 5833 5833 5833 5833 5833 5833 5833 5833 5833 5833
5808 5809 5810 5811 5812 5813 5813 5814 5814 5815 5816 5817 5817 5818 5819 5819 5820 5820 5821 5821 5821 5821 5821 5821 5821 5821 5822 5822 5823 5824 5825 5826 5826 5827 5827 5827 5827 5828 5828 5829 5830 5831 5832 5832 5833 5832 5832 5832 5832 5832 5832 5832 5832 5832 5832 5832 5832 5832 5832 5832 5832 5832
5808 5809 5810 5811 5811 5812 5812 5813 5813 5814 5814 5815 5816 5817 5818 5818 5819 5819 5820 5820 5821 5821 5821 5821 5821 5821 5821 5821 5821 5822 5823 5824 5825 5826 5826 5827 5827 5827 5827 5827 5828 5829 5830 5831 5832 5832 5831 5831 5831 5831 5831 5831 5831 5830 5830 5831 5831 5831 5831 5831 5830 5830
5809 5809 5810 5810 5811 5811 5812 5812 5812 5813 5814 5814 5815 5816 5817 5817 5818 5818 5819 5819 5820 5820 5820 5820 5820 5820 5820 5820 5821 5821 5821 5822 5823 5824 5825 5825 5826 5826 5826 5826 5827 5827 5828 5829 5830 5830 5830 5830 5830 5830 5830 5830 5830 5829 5829 5829 5829 5830 5829 5829 5829 5828
5809 5809 5810 5810 5811 5811 5811 5812 5812 5813 5813 5814 5815 5816 5816 5816 5817 5817 5818 5819 5819 5820 5820 5819 5819 5819 5819 5819 5820 5820 5821 5821 5822 5823 5824 5824 5824 5825 5825 5825 5825 5826 5826 5827 5828 5828 5828 5828 5828 5829 5829 5829 5829 5828 5828 5828 5828 5828 5828 5828 5827 5827
5808 5809 5809 5810 5810 5810 5811 5811 5812 5812 5813 5813 5814 5815 5815 5816 5816 5816 5816 5817 5818 5819 5819 5819 5818 5818 5818 5819 5819 5819 5820 5820 5821 5822 5822 5823 5823 5823 5823 5824 5824 5824 5824 5824 5825 5825 5826 5826 5826 5827 5827 5827 5827 5827 5826 5826 5826 5826 5826 5826 5826 5825
5807 5808 5808 5809 5809 5809 5810 5810 5811 5811 5812 5812 5813 5814 5814 5815 5815 5815 5815 5816 5816 5817 5817 5817 5817 5817 5817 5817 5818 5818 5819 5819 5820 5821 5821 5821 5822 5822 5822 5822 5822 5822 5822 5822 5823 5823 5824 5824 5824 5825 5825 5825 5825 5825 5825 5825 5825 5825 5825 5825 5824 5824
5807 5807 5807 5808 5808 5809 5809 5810 5810 5810 5811 5811 5812 5813 5813 5814 5814 5813 5813 5814 5814 5815 5815 5816 5816 5815 5815 5815 5816 5816 5817 5817 5818 5819 5819 5819 5820 5820 5820 5820 5821 5821 5821 5820 5820 5821 5821 5822 5822 5822 5823 5823 5823 5823 5823 5823 5823 5823 5823 5823 5822 5822
5806 5806 5807 5807 5807 5808 5809 5809 5810 5810 5810 5810 5811 5811 5812 5812 5812 5811 5811 5811 5812 5813 5813 5814 5814 5814 5814 5813 5813 5814 5814 5815 5815 5816 5816 5817 5817 5818 5818 5819 5819 5819 5819 5819 5819 5819 5819 5819 5820 5820 5820 5820 5821 5821 5821 5821 5821 5821 5821 5820 5820 5820
5805 5805 5805 5806 5806 5807 5807 5808 5808 5809 5808 5808 5809 5809 5810 5810 5810 5810 5809 5809 5809 5810 5810 5811 5811 5812 5812 5811 5811 5811 5812 5813 5813 5814 5814 5815 5815 5816 5816 5816 5817 5817 5818 5818 5817 5818 5818 5818 5818 5818 5818 5818 5818 5819 5819 5819 5819 5819 5818 5818 5818 5818
5803 5804 5804 5804 5804 5805 5805 5806 5806 5806 5806 5806 5806 5807 5807 5808 5808 5808 5808 5807 5807 5807 5807 5808 5808 5809 5809 5809 5809 5809 5810 5810 5811 5811 5812 5812 5812 5813 5813 5813 5814 5815 5815 5816 5816 5816 5816 5816 5816 5816 5816 5816 5816 5817 5816 5816 5816 5816 5817 5816 5816 5816
5802 5802 5802 5802 5802 5802 5803 5803 5803 5804 5804 5804 5804 5804 5804 5805 5806 5806 5806 5805 5805 5804 5804 5805 5805 5806 5806 5806 5806 5807 5807 5808 5808 5808 5809 5809 5809 5809 5810 5810 5811 5812 5812 5813 5814 5814 5814 5814 5814 5814 5814 5814 5814 5815 5815 5814 5814 5813 5814 5815 5814 5814
5800 5800 5800 5800 5800 5800 5801 5801 5801 5801 5801 5801 5802 5802 5802 5802 5803 5803 5803 5803 5803 5803 5802 5802 5802 5802 5803 5803 5804 5804 5804 5805 5805 5805 5805 5806 5806 5806 5806 5807 5807 5808 5809 5810 5810 5811 5811 5812 5812 5812 5811 5812 5812 5812 5813 5813 5812 5811 5811 5812 5812 5812
5798 5798 5798 5798 5798 5798 5798 5798 5798 5798 5798 5798 5799 5799 5799 5799 5800 5800 5801 5801 5801 5801 5800 5800 5799 5799 5800 5800 5800 5801 5801 5802 5802 5802 5802 5802 5803 5803 5803 5803 5804 5804 5805 5806 5807 5807 5808 5808 5809 5809 5809 5809 5809 5810 5810 5810 5810 5810 5809 5809 5809 5809
5796 5796 5796 5796 5796 5796 5796 5796 5796 5796 5796 5796 5796 5796 5796 5796 5797 5797 5797 5798 5798 5798 5798 5797 5797 5797 5797 5797 5797 5798 5798 5798 5799 5799 5799 5799 5800 5800 5800 5800 5800 5800 5801 5802 5803 5803 5803 5804 5805 5806 5806 5806 5806 5807 5808 5808 5808 5808 5807 5807 5806 5806
5794 5794 5794 5794 5793 5793 5793 5793 5793 5793 5793 5793 5793 5793 5793 5793 5793 5794 5794 5794 5795 5795 5795 5795 5794 5794 5794 5794 5794 5794 5795 5795 5795 5796 5796 5796 5796 5796 5796 5796 5797 5797 5797 5798 5798 5798 5799 5800 5801 5802 5802 5803 5803 5803 5804 5805 5805 5806 5805 5804 5804 5804
5792 5792 5791 5791 5791 5791 5791 5791 5791 5791 5791 5791 5791 5791 5791 5791 5790 5791 5791 5791 5791 5792 5792 5792 5792 5791 5791 5791 5791 5791 5791 5792 5792 5792 5792 5792 5793 5793 5793 5793 5793 5794 5794 5794 5794 5794 5795 5796 5797 5798 5798 5799 5799 5799 5800 5801 5802 5802 5802 5802 5801 5801
5790 5789 5789 5789 5789 5789 5789 5789 5788 5788 5788 5788 5788 5788 5788 5788 5788 5788 5788 5788 5788 5788 5788 5788 5788 5788 5788 5788 5788 5788 5788 5788 5788 5788 5788 5789 5789 5789 5789 5790 5790 5791 5791 5791 5790 5790 5791 5792 5792 5793 5793 5795 5796 5795 5796 5797 5798 5798 5798 5798 5798 5798
5788 5787 5787 5787 5787 5787 5787 5786 5786 5786 5786 5786 5786 5785 5785 5785 5785 5785 5785 5785 5785 5785 5785 5785 5785 5785 5785 5785 5784 5785 5785 5785 5785 5785 5785 5785 5785 5786 5786 5786 5787 5787 5788 5788 5788 5787 5786 5787 5787 5787 5789 5791 5791 5791 5792 5793 5793 5794 5794 5795 5795 5795
5786 5785 5785 5785 5785 5784 5784 5784 5783 5783 5783 5783 5782 5782 5781 5781 5781 5781 5781 5782 5782 5781 5781 5781 5781 5781 5781 5781 5781 5781 5781 5781 5781 5781 5781 5782 5782 5782 5782 5782 5783 5784 5784 5784 5784 5784 5783 5782 5782 5783 5784 5786 5786 5787 5788 5788 5788 5790 5791 5791 5791 5791
5784 5783 5783 5782 5782 5781 5781 5780 5780 5780 5779 5779 5778 5778 5777 5777 5777 5777 5777 5777 5777 5777 5777 5777 5778 5778 5778 5778 5778 5778 5778 5777 5777 5777 5777 5778 5778 5778 5778 5778 5779 5779 5780 5780 5780 5780 5779 5778 5779 5779 5780 5781 5781 5783 5784 5784 5784 5785 5786 5786 5787 5788
5781 5780 5780 5779 5778 5778 5777 5777 5776 5776 5775 5775 5774 5774 5774 5773 5773 5773 5773 5773 5773 5773 5773 5774 5774 5774 5774 5774 5774 5774 5774 5774 5773 5773 5774 5774 5774 5774 5775 5775 5775 5775 5776 5776 5776 5776 5775 5774 5775 5776 5776 5776 5777 5778 5779 5780 5780 5782 5782 5782 5783 5784
5778 5777 5776 5776 5775 5774 5774 5773 5772 5772 5772 5771 5770 5770 5770 5770 5770 5769 5769 5770 5770 5770 5770 5770 5770 5770 5770 5771 5771 5770 5770 5770 5770 5770 5770 5770 5771 5771 5771 5772 5772 5772 5772 5772 5772 5772 5771 5770 5771 5772 5772 5772 5772 5773 5774 5775 5776 5778 5779 5779 5778 5779
5774 5773 5773 5772 5771 5771 5770 5770 5769 5769 5768 5768 5767 5767 5766 5766 5766 5766 5766 5766 5766 5766 5767 5767 5767 5767 5767 5767 5767 5767 5767 5767 5767 5767 5767 5767 5768 5768 5769 5769 5769 5770 5769 5769 5769 5769 5768 5767 5767 5768 5768 5767 5768 5769 5769 5770 5771 5772 5774 5776 5776 5774
5770 5770 5769 5768 5768 5768 5767 5767 5766 5766 5766 5765 5765 5764 5764 5763 5763 5763 5763 5764 5763 5763 5763 5763 5763 5763 5763 5763 5763 5763 5764 5763 5764 5764 5764 5764 5765 5765 5766 5766 5766 5766 5766 5766 5765 5765 5764 5764 5764 5764 5764 5764 5764 5765 5765 5765 5766 5767 5769 5772 5773 5771
5767 5766 5765 5765 5764 5764 5764 5764 5764 5764 5763 5762 5762 5762 5761 5761 5761 5761 5761 5761 5760 5760 5760 5760 5760 5759 5760 5760 5760 5760 5761 5761 5761 5761 5761 5762 5762 5762 5762 5763 5763 5763 5763 5762 5761 5761 5760 5760 5760 5760 5760 5760 5761 5761 5761 5761 5761 5762 5763 5766 5768 5768
5763 5762 5762 5762 5762 5762 5761 5761 5761 5761 5761 5760 5760 5759 5759 5759 5758 5758 5758 5758 5757 5757 5757 5757 5756 5756 5757 5757 5757 5757 5757 5758 5758 5758 5758 5758 5759 5759 5759 5759 5759 5759 5758 5758 5757 5757 5756 5756 5756 5756 5756 5756 5757 5757 5757 5757 5757 5757 5758 5759 5761 5763
5761 5760 5759 5759 5759 5759 5759 5759 5758 5758 5758 5758 5757 5757 5757 5756 5756 5756 5755 5755 5754 5754 5754 5753 5753 5753 5754 5754 5754 5754 5754 5754 5754 5755 5755 5755 5756 5755 5755 5755 5755 5755 5754 5754 5753 5753 5752 5752 5751 5751 5751 5751 5752 5753 5753 5753 5753 5753 5754 5754 5756 5758
5759 5758 5758 5758 5758 5757 5757 5756 5756 5756 5755 5755 5754 5754 5754 5753 5753 5753 5752 5752 5752 5751 5751 5751 5750 5750 5750 5751 5751 5751 5751 5751 5751 5752 5752 5752 5752 5752 5752 5752 5751 5751 5750 5750 5749 5749 5748 5748 5747 5747 5747 5747 5748 5748 5748 5749 5749 5749 5750 5750 5751 5752
5757 5757 5756 5756 5756 5755 5755 5754 5754 5753 5753 5752 5751 5751 5750 5750 5750 5749 5749 5748 5748 5748 5748 5747 5747 5747 5747 5747 5748 5748 5748 5748 5748 5748 5748 5749 5749 5749 5749 5748 5748 5747 5747 5746 5746 5745 5745 5744 5743 5743 5743 5743 5743 5744 5744 5744 5745 5745 5745 5746 5746 5747
5756 5755 5755 5754 5754 5753 5753 5752 5752 5751 5750 5749 5749 5748 5747 5747 5746 5746 5745 5745 5744 5744 5744 5744 5743 5743 5743 5744 5744 5744 5745 5745 5745 5745 5745 5745 5745 5746 5745 5745 5744 5744 5743 5743 5743 5742 5742 5741 5740 5740 5740 5740 5739 5739 5739 5740 5740 5740 5741 5741 5741 5742
5754 5753 5753 5752 5752 5751 5750 5750 5749 5749 5748 5747 5746 5745 5745 5744 5743 5742 5742 5741 5741 5740 5740 5740 5740 5740 5740 5740 5740 5740 5741 5741 5741 5741 5741 5742 5742 5742 5742 5741 5741 5741 5740 5740 5740 5739 5739 5738 5738 5737 5737 5736 5736 5736 5735 5735 5736 5736 5736 5736 5737 5738
5752 5752 5751 5750 5749 5749 5748 5747 5747 5746 5745 5745 5744 5743 5742 5741 5740 5739 5739 5738 5737 5737 5736 5736 5736 5736 5736 5736 5737 5737 5737 5737 5737 5738 5738 5738 5738 5738 5738 5738 5738 5738 5737 5737 5737 5736 5736 5735 5735 5734 5734 5734 5733 5732 5732 5732 5731 5731 5731 5732 5733 5734